Wind_Speed
44 44 44 43 43 43 43 43 42 42 42 42 42 41 41 42 43 43 44 44 43 43 42 43 43 44 44 44 44 44 44 44 44 44 43 44 44 45 45 46 47 49 50 48 46 47 48 46 46 49 48 46 45 44 44 44 44 44 43 43 43 43 44
45 44 44 43 43 43 43 43 42 42 42 42 42 41 41 41 42 44 44 44 44 43 42 42 42 43 44 44 44 44 45 44 44 43 42 43 44 45 44 45 46 48 49 49 47 46 47 46 46 48 48 47 46 45 44 44 44 44 43 43 43 42 42
45 44 43 43 43 43 43 43 42 42 42 42 42 42 42 41 42 43 44 44 44 43 42 42 42 42 43 44 45 44 44 44 44 43 42 42 43 44 44 44 45 47 48 49 48 46 46 46 46 47 48 47 45 45 44 43 43 44 44 43 42 42 41
44 43 43 43 43 44 43 42 42 42 42 42 42 42 42 42 42 42 43 43 43 43 43 42 41 42 42 43 44 44 44 43 43 43 42 42 42 43 43 44 45 46 47 49 48 46 45 46 47 46 47 46 45 44 43 43 42 43 44 43 41 41 40
44 43 43 43 43 44 43 42 42 42 42 42 42 42 42 43 43 43 43 43 42 42 43 43 42 41 41 42 43 43 42 42 42 42 42 42 42 42 43 43 44 45 45 47 48 47 45 45 46 46 45 45 44 44 43 43 42 41 42 43 41 40 39
44 44 44 43 43 43 43 42 42 41 41 42 42 43 43 43 43 43 43 43 42 42 42 43 43 42 41 41 41 42 41 41 41 41 42 42 41 42 42 43 43 43 44 45 46 46 45 44 44 44 44 44 43 43 43 43 42 40 40 42 42 40 38
44 44 44 44 43 43 42 42 41 41 41 42 43 43 43 44 44 44 44 43 43 42 41 42 42 42 41 41 40 40 40 40 40 40 41 40 41 41 42 42 42 41 42 43 44 45 44 43 43 43 43 42 41 41 41 42 43 41 38 39 40 40 38
44 44 44 44 43 43 42 42 41 41 42 42 43 43 44 44 44 44 44 44 43 42 41 41 41 41 40 40 39 38 39 39 40 40 40 39 39 40 40 40 40 40 41 42 43 43 42 41 42 42 41 40 39 39 39 39 40 40 38 38 38 38 37
43 43 43 43 43 43 42 41 40 41 41 42 43 43 44 44 45 44 44 43 42 41 40 40 39 39 39 38 37 36 37 39 39 39 39 39 38 38 38 38 39 39 40 40 41 40 40 40 40 39 39 38 38 38 37 36 37 38 37 38 37 36 35
43 43 42 42 42 42 41 40 40 40 41 42 42 43 44 45 45 45 44 43 42 40 39 38 37 37 37 36 36 35 36 37 38 38 38 38 37 37 37 37 38 38 38 38 39 39 38 39 38 37 37 37 37 36 36 35 35 36 35 36 37 35 32
43 42 42 42 42 41 41 40 39 39 40 41 41 42 44 46 46 45 44 43 41 39 38 37 36 36 36 35 34 34 35 35 36 36 36 36 36 36 36 36 37 36 36 36 37 37 37 37 37 36 36 37 36 36 36 35 35 34 34 34 36 34 30
43 42 41 41 41 41 40 39 38 39 40 40 40 41 43 46 46 45 44 42 41 38 37 36 35 35 34 33 33 33 34 34 34 34 34 34 34 34 34 34 35 35 35 36 37 37 36 36 36 36 36 37 37 37 37 36 34 34 34 34 34 34 31
42 42 41 41 41 40 40 39 38 39 39 39 39 40 43 45 45 44 43 42 40 38 36 35 34 34 33 32 32 32 32 33 33 33 32 32 32 32 32 32 32 33 34 36 37 36 36 36 37 37 37 38 39 39 38 37 36 34 35 34 34 34 31
42 41 40 40 40 40 39 38 37 38 39 39 39 40 42 44 44 43 42 40 39 37 36 34 34 33 32 31 31 30 31 31 31 31 30 30 30 30 30 31 31 32 33 35 36 36 36 36 37 38 38 38 39 39 38 38 36 35 35 35 34 33 31
41 40 40 39 39 39 38 37 37 38 38 38 38 40 42 43 43 42 40 39 38 37 35 33 32 32 31 31 30 29 29 29 30 30 30 30 29 29 30 30 31 31 31 32 33 34 35 35 36 37 38 38 39 39 38 37 36 36 36 35 34 33 31
41 40 39 39 38 38 37 35 36 37 38 38 38 39 41 42 41 41 39 38 37 35 32 32 31 31 31 30 28 27 27 28 29 30 30 29 29 29 29 29 29 29 29 30 31 33 33 33 34 35 36 38 38 37 35 35 35 34 35 35 34 33 31
40 39 39 38 37 37 36 35 35 36 38 38 38 39 41 41 40 39 38 37 35 32 30 30 30 30 29 28 27 26 26 27 29 31 30 28 28 28 27 26 26 27 27 28 30 31 31 32 32 32 33 35 36 34 33 33 33 32 32 33 34 33 31
39 38 37 37 37 36 36 35 34 35 37 37 37 39 40 40 39 38 37 35 32 29 28 29 29 29 28 27 27 27 26 26 28 30 29 27 27 26 25 24 24 26 26 26 28 29 30 30 30 30 31 32 33 32 31 31 32 31 31 30 31 33 32
38 37 36 36 36 35 35 34 34 34 35 36 36 37 39 39 39 38 36 34 30 27 27 28 28 27 27 27 26 26 25 25 27 29 28 26 26 25 23 22 23 24 25 26 27 28 28 29 29 29 30 31 31 31 31 31 31 31 30 29 29 31 32
37 36 35 34 34 34 34 34 34 33 34 34 34 35 37 38 38 37 35 32 28 25 26 27 27 26 26 25 25 25 24 24 27 28 26 24 25 25 23 22 22 23 25 26 27 27 27 28 28 29 30 31 31 31 31 31 31 30 30 29 28 29 30
36 35 34 33 33 33 34 34 34 33 33 33 33 34 36 37 37 35 34 31 27 25 25 26 25 25 24 24 24 24 24 25 26 26 24 24 25 25 23 23 23 24 25 26 27 27 28 28 29 29 30 30 30 30 30 30 30 30 30 29 28 28 29
35 35 33 32 31 32 33 34 34 33 32 32 32 32 34 36 36 34 33 30 26 24 25 25 24 23 23 23 23 23 24 25 25 24 24 25 25 24 23 23 24 25 26 27 28 28 29 29 29 30 30 30 30 29 29 29 30 30 29 27 26 26 27
34 34 32 30 30 31 32 33 33 33 32 31 31 31 32 33 34 34 32 28 24 24 26 25 24 23 22 22 22 23 24 24 24 24 24 24 25 24 24 23 24 24 26 27 28 29 29 29 30 29 29 29 28 28 28 28 29 29 28 26 24 24 26
33 33 31 29 28 29 31 32 32 32 31 31 31 31 31 32 33 32 30 26 23 24 25 26 24 23 22 21 22 23 24 24 23 24 24 23 24 24 24 24 24 24 25 26 27 28 28 28 28 28 27 27 26 26 26 26 26 26 26 25 23 22 23
33 32 30 29 28 28 29 30 31 31 31 31 30 30 30 31 32 30 28 26 24 24 25 26 24 23 22 21 22 23 24 23 23 23 23 23 23 24 23 23 23 24 24 24 25 26 26 25 25 25 25 24 23 23 23 23 23 23 23 22 21 20 20
32 31 30 29 29 28 28 28 29 30 30 30 29 29 29 30 30 28 26 25 25 25 25 25 24 23 22 22 22 23 23 23 23 23 23 22 22 22 22 22 22 22 23 23 23 23 23 22 22 22 22 21 21 21 21 21 21 21 20 19 18 17 17
31 30 29 29 28 28 27 27 28 29 29 29 28 28 28 29 29 27 25 25 25 25 24 24 23 22 22 22 22 22 22 22 22 22 22 21 21 20 21 20 20 21 20 20 20 20 19 19 19 19 18 18 18 18 18 18 18 18 17 17 16 15 14
31 29 29 29 28 27 27 27 27 28 28 28 27 27 27 27 27 27 25 25 25 25 24 23 22 21 21 21 21 22 22 22 22 22 21 20 19 19 19 19 19 18 17 16 16 15 15 15 15 15 15 15 15 15 15 15 15 15 14 14 13 12 12
30 28 29 29 28 27 27 26 26 27 27 26 26 26 26 25 25 25 25 25 25 24 23 22 21 21 21 21 21 21 21 21 21 21 20 19 18 18 18 17 16 14 13 13 12 12 12 12 12 12 12 12 12 12 12 12 12 11 11 11 10 10 10
29 28 28 28 27 27 27 26 25 26 26 26 26 26 25 24 24 24 25 25 25 24 22 22 21 21 21 21 20 20 20 19 19 19 19 17 16 16 16 14 12 11 11 10 10 10 10 10 10 10 10 10 10 9 9 9 8 8 7 8 8 8 9
28 28 28 28 27 27 26 26 25 26 26 25 25 26 25 24 23 23 23 23 24 23 22 22 22 21 20 19 19 19 19 18 18 18 17 16 15 14 13 11 10 10 10 10 10 10 10 10 10 9 8 8 7 6 6 5 5 4 4 4 5 6 7
28 28 28 28 28 27 25 25 24 25 26 25 25 25 25 24 23 22 21 21 22 22 21 21 22 21 20 19 19 19 18 18 17 17 16 15 13 12 11 11 10 10 10 10 11 11 11 10 10 9 8 7 6 5 4 4 4 3 2 1 2 4 5
28 29 29 28 27 27 26 25 25 25 25 25 25 25 25 24 23 22 21 21 21 21 20 20 20 21 20 20 19 19 18 17 16 16 15 13 12 11 11 11 11 11 11 11 11 11 11 10 10 9 8 7 6 4 3 3 3 2 1 0 1 2 4
27 29 29 28 27 26 26 26 25 25 25 24 24 24 25 24 22 21 21 21 21 20 20 20 20 20 20 20 20 19 18 17 16 15 14 13 11 11 11 12 12 12 11 11 11 10 10 10 9 8 7 6 5 4 3 2 2 2 1 0 1 3 4
27 29 30 28 27 27 27 26 26 25 25 24 24 24 25 25 22 21 20 20 20 20 20 20 20 20 20 20 19 19 18 17 16 15 14 13 12 12 12 12 12 11 11 10 10 9 9 9 8 7 6 5 3 2 2 2 2 1 0 1 2 3 4
25 28 29 29 28 28 27 26 25 25 25 24 24 24 26 25 23 21 19 19 19 20 21 21 20 20 20 19 19 19 18 17 16 15 14 13 12 12 12 12 11 11 10 9 8 8 7 7 6 5 4 2 1 1 1 1 1 0 1 2 3 3 4
Wind_Direction
298 298 298 299 298 298 297 297 297 297 297 296 297 297 297 297 297 296 295 294 293 292 290 288 287 286 286 286 286 286 287 287 288 287 286 286 286 285 285 285 285 286 286 285 284 285 285 285 285 285 284 283 282 281 280 279 279 277 276 274 271 266 260
298 298 298 298 297 296 295 296 296 295 295 295 295 296 296 296 296 295 295 294 293 292 290 288 286 285 285 285 285 285 286 286 286 285 284 284 284 284 284 284 284 285 285 284 284 284 285 285 284 283 284 284 283 282 281 279 278 277 275 274 273 270 265
298 298 297 296 295 294 294 294 294 294 294 294 295 295 295 295 295 295 294 294 293 292 290 288 286 284 283 283 284 284 285 286 285 285 284 284 284 284 284 283 283 283 284 284 284 284 284 284 283 283 283 284 284 283 282 280 278 277 275 274 273 271 268
297 297 295 294 293 293 293 293 293 293 293 294 294 295 295 296 295 295 294 293 292 291 289 287 286 284 283 283 282 283 284 284 284 284 284 284 283 283 282 282 281 281 282 283 284 284 284 284 284 284 284 284 284 284 283 281 279 277 276 274 274 273 270
296 295 294 293 292 292 293 293 292 293 293 294 294 295 295 296 296 295 295 294 292 291 289 287 286 284 283 282 282 282 283 283 283 283 284 283 282 281 280 280 279 279 280 282 283 283 283 283 284 285 285 286 286 285 284 283 281 278 277 276 274 273 272
295 294 294 293 293 292 292 292 292 293 293 293 293 294 295 296 296 296 296 295 293 291 289 288 286 284 283 283 282 281 281 281 282 282 282 282 281 280 279 278 279 279 279 280 281 282 282 283 284 285 285 285 286 286 284 283 281 279 278 277 276 274 273
295 295 294 294 293 292 292 291 292 292 292 292 292 294 295 296 297 297 297 296 295 293 290 287 285 284 283 283 282 281 280 281 281 281 280 280 279 278 278 279 279 279 278 278 279 281 283 284 284 283 284 284 284 284 284 283 282 280 278 277 276 275 273
295 295 294 293 292 292 291 290 291 291 290 291 292 293 295 297 298 299 298 297 296 294 291 288 284 282 282 283 282 280 280 280 280 280 279 278 277 277 278 278 278 277 276 277 279 280 282 283 283 283 284 285 284 283 283 283 283 283 280 277 276 276 276
294 293 292 292 291 290 290 289 289 289 289 290 291 293 295 297 298 298 298 298 297 295 292 288 285 282 282 281 280 279 279 279 280 280 280 280 279 279 278 278 277 276 277 278 279 281 281 281 282 283 283 283 283 282 282 282 282 282 281 279 276 276 278
292 292 291 290 289 288 288 288 288 288 288 289 290 293 295 297 297 298 298 298 296 295 292 288 284 282 281 280 279 278 278 279 280 280 281 282 282 281 280 278 277 278 279 280 280 280 281 281 281 282 282 282 282 282 282 282 281 281 280 280 277 275 277
292 291 290 289 288 288 287 287 287 286 286 288 290 293 295 296 298 299 299 298 297 295 292 288 284 281 280 280 279 279 278 278 279 280 281 282 282 281 281 280 280 281 281 281 281 281 282 283 284 284 283 283 283 283 283 282 281 281 280 279 277 274 272
291 291 290 289 288 287 287 286 285 285 286 287 290 293 294 296 297 299 299 299 298 295 291 286 282 280 280 280 279 279 279 279 279 280 281 281 280 279 280 280 281 282 282 281 281 282 283 284 285 285 284 284 284 283 283 282 281 281 280 278 277 275 273
291 291 290 289 287 287 286 286 285 285 286 288 289 292 293 294 296 298 299 300 298 294 289 285 283 281 280 280 279 279 279 279 280 280 280 280 279 279 279 279 279 279 280 281 283 284 285 285 285 285 284 284 283 283 282 281 280 280 278 276 274 274 274
290 290 288 287 287 286 285 285 285 285 286 287 289 290 291 293 296 298 300 300 297 292 287 285 283 281 281 281 281 280 280 280 280 280 278 277 277 277 276 276 277 277 278 280 283 285 286 285 285 285 284 283 283 282 282 281 280 278 275 273 272 271 272
289 288 287 286 285 285 284 284 284 285 286 287 288 289 290 293 296 298 300 299 295 290 287 284 281 281 281 281 281 282 281 281 279 278 276 275 275 275 276 276 277 278 279 280 281 282 282 282 282 282 283 283 282 283 284 283 282 279 275 271 268 267 268
288 287 286 285 285 284 284 284 284 285 286 287 288 289 291 294 297 299 300 298 294 289 285 282 280 279 280 281 282 282 280 279 277 276 276 277 277 278 279 280 280 280 280 280 279 279 280 281 281 282 283 284 284 285 285 285 283 280 277 273 267 264 262
288 287 286 286 285 285 285 285 285 286 287 288 289 290 292 295 297 299 300 298 293 287 283 280 279 279 280 281 281 279 277 276 277 277 277 278 279 279 281 282 282 280 279 279 279 280 281 282 283 283 284 284 286 287 287 285 283 280 277 274 268 262 257
287 287 286 286 285 285 285 286 286 286 287 288 290 291 293 295 298 300 300 298 292 285 281 278 278 279 280 280 279 278 277 277 277 278 279 280 281 281 282 282 280 278 278 278 278 280 283 285 286 286 285 286 287 288 288 286 283 280 277 274 269 263 257
287 286 286 285 285 285 285 286 285 286 287 288 290 292 294 296 299 300 300 297 290 283 278 277 277 277 277 277 277 278 279 279 278 278 281 284 284 284 283 281 279 278 278 277 278 280 282 285 287 287 287 287 287 287 287 286 285 283 280 277 271 265 258
287 286 285 284 285 285 285 286 286 286 287 288 290 292 294 296 299 301 300 295 289 282 277 275 275 275 276 276 277 278 279 279 278 280 284 286 284 284 284 282 279 278 279 279 280 282 284 285 285 286 286 286 286 286 287 285 284 283 281 277 272 266 259
286 285 284 284 284 285 286 286 287 287 288 289 290 292 294 296 299 300 298 294 288 282 277 275 274 274 274 275 276 277 278 277 278 282 286 284 282 283 284 282 280 279 280 282 283 284 285 285 286 286 286 286 286 286 286 285 283 281 279 276 272 267 259
285 284 284 284 284 285 285 286 286 287 287 288 290 291 293 296 299 299 297 294 289 283 278 275 274 273 273 274 275 276 277 277 279 282 282 280 280 282 281 280 281 282 283 283 284 285 286 286 287 287 287 287 288 287 286 285 283 281 280 277 273 267 259
283 283 283 283 283 284 284 285 286 287 288 289 289 290 293 295 297 297 297 294 287 281 277 276 275 274 274 275 277 277 278 279 281 281 280 280 281 280 279 279 281 282 282 283 284 285 286 287 288 289 289 289 289 288 286 284 282 281 280 278 273 267 259
282 282 282 282 282 282 283 285 287 288 289 289 289 290 292 294 295 297 296 291 283 278 276 276 276 276 277 278 280 280 280 280 281 282 282 283 282 282 282 283 283 283 282 283 284 285 286 288 289 290 291 290 290 289 287 284 282 280 279 277 274 267 259
281 281 282 282 282 282 282 284 286 287 287 288 289 290 292 294 295 297 294 287 281 276 274 276 277 278 279 280 281 282 282 282 282 282 283 284 284 285 286 285 285 284 284 284 285 286 288 290 290 290 291 291 290 289 287 285 283 281 279 277 274 268 260
281 281 282 282 282 283 283 284 285 285 285 286 287 289 291 293 295 296 291 283 278 276 274 275 277 278 278 280 281 282 283 282 282 283 284 285 286 286 287 286 285 285 285 285 286 288 289 290 290 290 291 291 291 290 288 286 284 282 280 277 273 267 260
281 281 282 282 283 284 285 284 283 283 283 284 285 287 289 292 294 294 288 280 276 275 274 275 275 275 277 279 280 281 282 282 283 284 285 286 287 286 286 286 285 285 286 287 288 289 290 291 292 292 293 293 293 292 289 287 285 283 281 277 272 266 259
280 280 281 282 284 284 284 283 283 282 282 283 285 286 288 291 293 292 286 279 275 274 274 273 273 273 275 277 279 279 280 281 283 284 285 286 286 286 286 286 286 287 288 289 290 292 292 294 296 296 297 296 295 294 293 290 288 286 282 277 270 264 256
279 280 281 283 284 284 283 283 282 281 282 283 284 285 287 289 291 289 284 278 275 273 273 273 272 271 273 275 275 276 277 279 281 282 284 285 286 286 286 286 287 287 287 289 293 295 297 299 301 302 303 304 303 301 298 295 291 287 282 276 268 259 249
278 279 281 282 284 285 285 285 283 282 283 283 283 284 285 288 289 287 282 278 275 274 274 272 271 270 272 274 274 274 276 278 279 280 281 283 283 284 284 283 282 283 286 290 293 297 300 303 306 310 313 314 311 308 303 298 294 290 284 275 263 250 240
279 280 281 282 283 283 284 285 285 284 284 284 284 284 285 286 287 286 280 275 273 273 273 272 271 271 272 272 272 273 275 276 276 278 280 281 281 279 278 276 275 278 283 287 290 294 298 300 304 310 315 314 314 315 316 315 312 305 293 276 257 242 233
278 279 279 280 282 283 283 284 284 284 284 284 284 285 285 285 287 287 281 273 267 266 266 267 268 270 271 270 269 270 272 273 273 274 276 276 274 270 268 269 272 276 280 284 286 289 291 294 297 300 304 308 313 323 338 347 345 336 320 277 240 227 218
276 277 278 280 282 284 285 285 284 283 283 284 284 283 283 284 287 288 284 277 270 267 265 264 263 265 267 267 266 267 268 269 269 269 269 267 264 261 263 267 271 275 279 281 283 284 286 289 290 291 294 298 306 319 339 354 355 344 331 247 190 183 182
277 278 279 281 283 284 284 284 284 284 284 284 283 282 281 282 283 285 283 278 273 269 267 264 261 261 261 262 263 264 265 265 264 263 260 257 256 258 263 267 272 275 277 279 280 282 284 286 285 285 286 290 297 312 331 341 338 326 309 232 169 160 162
278 279 280 282 282 282 282 283 284 285 285 284 283 282 281 280 281 282 281 277 271 267 264 262 259 258 258 258 260 261 262 261 259 255 250 248 251 257 262 267 271 273 274 275 278 280 281 281 279 278 279 283 291 308 326 336 329 317 299 144 147 151 155
273 276 279 282 283 282 281 283 284 284 284 284 282 281 280 280 281 281 279 274 268 264 262 260 258 257 256 256 256 258 258 256 252 247 243 243 248 255 261 266 269 269 269 271 274 274 274 271 269 267 267 269 284 318 352 10 11 36 103 111 122 131 137
Height
2954 2952 2950 2947 2945 2942 2940 2938 2936 2934 2931 2929 2928 2926 2924 2921 2919 2917 2915 2913 2912 2910 2909 2907 2905 2904 2902 2901 2899 2897 2896 2895 2893 2892 2891 2889 2887 2886 2884 2882 2880 2876 2874 2876 2877 2875 2874 2876 2875 2872 2872 2874 2874 2874 2874 2873 2873 2872 2872 2872 2871 2872 2873
2948 2946 2944 2941 2939 2937 2934 2932 2930 2928 2926 2924 2922 2920 2919 2917 2914 2911 2909 2907 2906 2905 2903 2902 2900 2898 2896 2895 2893 2892 2890 2889 2888 2887 2885 2884 2882 2880 2879 2877 2875 2872 2869 2868 2871 2871 2869 2870 2870 2867 2866 2867 2867 2867 2867 2867 2866 2866 2866 2866 2865 2865 2867
2942 2940 2938 2936 2933 2931 2929 2927 2925 2922 2920 2918 2916 2915 2913 2911 2909 2906 2904 2902 2900 2899 2897 2896 2894 2893 2891 2889 2887 2886 2885 2883 2882 2881 2880 2878 2877 2875 2874 2872 2870 2868 2865 2863 2864 2865 2864 2863 2863 2862 2860 2861 2861 2860 2860 2860 2860 2859 2859 2859 2859 2859 2860
2937 2934 2932 2930 2928 2925 2923 2921 2919 2917 2915 2913 2911 2909 2907 2905 2903 2901 2899 2897 2895 2893 2891 2890 2889 2887 2886 2884 2882 2880 2879 2878 2876 2875 2874 2872 2871 2870 2868 2867 2865 2863 2861 2858 2857 2859 2859 2857 2856 2856 2855 2854 2855 2855 2854 2853 2854 2853 2852 2853 2853 2853 2854
2931 2928 2926 2924 2922 2920 2918 2915 2913 2911 2909 2907 2905 2903 2901 2899 2897 2895 2893 2891 2889 2887 2885 2884 2883 2882 2880 2878 2876 2875 2874 2872 2871 2869 2868 2867 2866 2865 2863 2861 2860 2859 2857 2855 2852 2853 2853 2852 2851 2850 2849 2849 2848 2848 2848 2847 2847 2848 2847 2846 2847 2847 2847
2924 2922 2920 2918 2916 2914 2912 2909 2907 2905 2903 2901 2899 2897 2895 2893 2891 2889 2887 2885 2884 2882 2880 2878 2876 2875 2874 2872 2871 2870 2868 2867 2865 2864 2862 2861 2860 2859 2857 2856 2855 2854 2852 2850 2848 2847 2847 2847 2846 2845 2844 2844 2843 2842 2841 2841 2841 2842 2842 2840 2840 2841 2841
2918 2915 2913 2911 2909 2907 2905 2903 2901 2899 2897 2895 2893 2891 2889 2887 2885 2883 2881 2879 2877 2876 2874 2872 2870 2869 2868 2866 2865 2864 2863 2861 2860 2858 2857 2856 2854 2853 2852 2851 2850 2849 2847 2845 2843 2842 2842 2842 2841 2840 2839 2839 2838 2837 2836 2834 2834 2836 2837 2836 2835 2835 2835
2911 2909 2907 2905 2903 2901 2899 2897 2896 2894 2891 2889 2887 2885 2883 2881 2879 2877 2875 2873 2871 2870 2868 2866 2865 2863 2862 2860 2859 2858 2857 2855 2854 2852 2851 2850 2849 2848 2847 2846 2844 2843 2841 2840 2839 2838 2838 2837 2836 2835 2834 2834 2833 2832 2831 2830 2829 2829 2830 2830 2830 2829 2828
2905 2903 2901 2899 2897 2895 2893 2891 2890 2888 2886 2884 2882 2879 2877 2875 2873 2871 2869 2867 2865 2864 2862 2860 2859 2857 2856 2855 2853 2852 2851 2849 2848 2846 2845 2844 2844 2843 2842 2840 2839 2837 2836 2835 2834 2833 2833 2832 2831 2831 2830 2829 2828 2827 2826 2826 2825 2824 2824 2824 2824 2825 2823
2899 2897 2895 2893 2891 2889 2887 2886 2885 2883 2880 2878 2876 2874 2871 2869 2867 2865 2864 2862 2860 2858 2856 2855 2853 2852 2850 2849 2848 2847 2845 2844 2842 2841 2840 2839 2838 2837 2836 2835 2833 2832 2832 2831 2829 2829 2828 2827 2826 2827 2825 2824 2824 2823 2822 2822 2821 2820 2820 2819 2818 2820 2820
2893 2891 2890 2888 2886 2884 2882 2880 2879 2877 2875 2873 2871 2868 2865 2862 2860 2859 2857 2856 2854 2852 2851 2849 2847 2846 2845 2844 2843 2841 2840 2839 2837 2836 2835 2834 2833 2832 2830 2829 2828 2827 2827 2826 2824 2823 2823 2822 2822 2822 2821 2819 2819 2818 2817 2817 2816 2815 2815 2814 2813 2813 2815
2887 2885 2883 2881 2879 2877 2876 2875 2874 2872 2869 2867 2866 2863 2860 2856 2854 2853 2852 2850 2848 2847 2845 2843 2842 2841 2840 2839 2837 2836 2835 2834 2833 2831 2830 2829 2828 2827 2826 2825 2823 2822 2821 2820 2819 2819 2819 2818 2817 2816 2816 2814 2813 2813 2812 2812 2812 2811 2810 2809 2808 2808 2810
2881 2879 2877 2875 2873 2871 2870 2869 2868 2866 2864 2862 2861 2858 2855 2851 2849 2848 2846 2844 2843 2841 2839 2837 2836 2835 2834 2834 2832 2831 2830 2829 2828 2827 2826 2824 2823 2822 2821 2821 2820 2818 2817 2815 2814 2814 2814 2813 2812 2811 2810 2810 2808 2807 2807 2807 2807 2806 2805 2804 2804 2803 2804
2875 2873 2871 2869 2867 2866 2865 2864 2862 2860 2858 2857 2855 2853 2849 2846 2844 2843 2841 2839 2837 2834 2833 2832 2831 2830 2829 2828 2827 2826 2825 2824 2823 2822 2821 2820 2819 2818 2817 2816 2815 2815 2813 2812 2810 2810 2809 2808 2807 2806 2805 2804 2803 2802 2802 2802 2802 2801 2800 2799 2799 2799 2800
2869 2867 2865 2863 2862 2860 2859 2858 2857 2854 2853 2851 2850 2848 2844 2841 2839 2838 2836 2834 2831 2829 2828 2827 2826 2825 2824 2823 2823 2822 2821 2820 2818 2817 2816 2815 2814 2814 2813 2812 2811 2811 2810 2809 2807 2806 2805 2804 2803 2801 2800 2799 2798 2797 2797 2796 2796 2795 2794 2794 2794 2795 2796
2863 2861 2860 2858 2856 2854 2854 2853 2851 2849 2847 2845 2844 2841 2838 2836 2834 2832 2831 2829 2826 2824 2823 2822 2821 2820 2819 2819 2819 2818 2817 2815 2813 2812 2811 2811 2810 2809 2809 2808 2808 2806 2805 2805 2803 2801 2801 2800 2799 2797 2796 2794 2792 2793 2793 2791 2791 2790 2789 2788 2789 2790 2791
2857 2855 2853 2852 2850 2848 2848 2847 2845 2843 2841 2839 2838 2835 2832 2830 2829 2827 2825 2823 2821 2820 2818 2817 2816 2815 2815 2815 2814 2813 2812 2811 2809 2807 2807 2807 2806 2806 2805 2805 2804 2802 2801 2800 2798 2797 2796 2796 2795 2794 2792 2789 2787 2788 2788 2786 2785 2785 2784 2783 2783 2784 2786
2851 2849 2847 2845 2844 2842 2841 2841 2840 2838 2835 2834 2832 2829 2826 2825 2823 2822 2820 2818 2816 2815 2814 2812 2812 2811 2811 2810 2809 2808 2808 2807 2805 2803 2802 2803 2802 2802 2802 2801 2800 2798 2797 2796 2795 2793 2792 2791 2790 2790 2788 2786 2784 2783 2783 2781 2780 2780 2779 2779 2779 2778 2780
2845 2843 2841 2839 2838 2837 2835 2835 2834 2832 2830 2829 2827 2824 2821 2819 2817 2816 2815 2813 2812 2811 2810 2808 2808 2807 2807 2806 2805 2804 2804 2803 2801 2799 2799 2799 2798 2798 2798 2797 2796 2794 2793 2792 2791 2790 2789 2788 2787 2785 2784 2782 2781 2779 2778 2777 2776 2775 2774 2774 2774 2774 2774
2839 2837 2836 2834 2832 2831 2830 2829 2828 2827 2825 2824 2822 2819 2816 2813 2812 2811 2809 2808 2807 2807 2806 2804 2804 2803 2803 2802 2801 2800 2800 2799 2797 2795 2795 2795 2794 2793 2794 2793 2791 2790 2789 2788 2787 2786 2785 2784 2783 2781 2780 2778 2777 2776 2775 2773 2772 2771 2770 2770 2770 2769 2769
2833 2831 2830 2829 2827 2826 2824 2823 2822 2822 2820 2818 2817 2815 2812 2809 2807 2806 2804 2803 2802 2802 2801 2801 2800 2800 2799 2798 2798 2797 2796 2795 2793 2792 2792 2791 2790 2790 2789 2788 2787 2786 2785 2784 2783 2782 2781 2780 2779 2777 2776 2774 2773 2772 2771 2769 2768 2767 2766 2766 2765 2765 2765
2827 2826 2825 2824 2822 2821 2819 2818 2816 2816 2815 2814 2812 2810 2807 2804 2802 2801 2800 2799 2798 2798 2797 2796 2796 2796 2795 2795 2794 2793 2792 2791 2790 2790 2789 2787 2786 2786 2786 2784 2783 2782 2781 2780 2779 2778 2777 2776 2775 2773 2772 2770 2769 2768 2766 2765 2764 2763 2762 2762 2761 2761 2761
2822 2820 2820 2819 2818 2816 2814 2813 2811 2811 2810 2809 2807 2805 2803 2801 2798 2796 2795 2795 2795 2794 2792 2792 2792 2792 2792 2791 2790 2790 2789 2788 2787 2786 2785 2784 2783 2782 2781 2781 2780 2778 2777 2776 2775 2774 2773 2772 2770 2769 2768 2766 2765 2763 2762 2761 2760 2759 2758 2758 2757 2757 2757
2816 2815 2814 2814 2813 2812 2810 2808 2807 2805 2804 2803 2802 2800 2799 2796 2794 2793 2792 2791 2791 2790 2788 2788 2788 2788 2788 2787 2787 2786 2785 2784 2783 2782 2781 2780 2779 2778 2777 2777 2776 2775 2774 2773 2771 2770 2769 2768 2767 2765 2764 2762 2761 2759 2758 2757 2756 2755 2754 2754 2754 2754 2754
2811 2810 2809 2809 2808 2807 2805 2803 2802 2801 2799 2798 2797 2796 2794 2792 2790 2789 2788 2787 2786 2786 2785 2784 2784 2784 2784 2784 2783 2782 2781 2780 2779 2778 2777 2777 2775 2774 2774 2773 2772 2771 2770 2769 2768 2767 2765 2764 2763 2762 2760 2759 2757 2756 2755 2753 2753 2752 2751 2751 2751 2751 2751
2805 2804 2804 2803 2802 2802 2801 2799 2798 2796 2795 2793 2792 2791 2790 2787 2786 2785 2784 2783 2782 2782 2781 2781 2781 2780 2780 2780 2779 2778 2777 2776 2776 2775 2774 2773 2772 2771 2770 2769 2768 2767 2766 2766 2765 2764 2762 2761 2760 2759 2757 2756 2754 2753 2752 2750 2750 2749 2749 2748 2748 2748 2748
2800 2799 2798 2798 2797 2796 2796 2795 2793 2792 2790 2789 2788 2787 2786 2783 2781 2781 2780 2779 2778 2778 2778 2777 2777 2777 2776 2776 2775 2775 2774 2773 2772 2771 2771 2770 2769 2768 2767 2766 2765 2764 2763 2763 2762 2761 2760 2759 2757 2756 2754 2753 2752 2750 2749 2748 2747 2747 2746 2746 2746 2745 2746
2795 2794 2793 2792 2792 2791 2791 2790 2789 2787 2786 2785 2784 2783 2782 2780 2778 2776 2776 2775 2775 2774 2774 2774 2774 2773 2773 2772 2772 2771 2771 2770 2769 2768 2767 2767 2766 2765 2764 2763 2762 2761 2761 2760 2759 2759 2758 2756 2755 2754 2752 2751 2750 2748 2747 2746 2745 2745 2744 2744 2744 2744 2744
2790 2789 2788 2787 2787 2786 2786 2785 2784 2782 2781 2780 2779 2778 2777 2776 2774 2773 2772 2771 2771 2770 2770 2770 2770 2770 2769 2769 2768 2768 2767 2767 2766 2765 2764 2764 2763 2762 2761 2760 2760 2759 2759 2758 2757 2757 2756 2755 2753 2752 2751 2749 2748 2747 2746 2745 2744 2743 2743 2742 2742 2742 2742
2785 2784 2783 2782 2782 2781 2780 2780 2779 2777 2776 2775 2775 2774 2773 2772 2771 2769 2768 2767 2767 2767 2767 2766 2766 2766 2766 2765 2765 2765 2764 2763 2763 2762 2761 2761 2760 2759 2759 2758 2758 2757 2757 2756 2756 2755 2754 2753 2752 2751 2749 2748 2747 2746 2745 2744 2743 2742 2742 2741 2741 2741 2741
2779 2779 2778 2777 2777 2777 2776 2775 2774 2772 2771 2771 2770 2769 2768 2768 2767 2766 2765 2764 2763 2763 2763 2763 2762 2762 2762 2762 2762 2761 2761 2760 2760 2759 2758 2758 2757 2757 2757 2756 2756 2756 2755 2755 2754 2754 2753 2752 2751 2750 2749 2748 2747 2745 2744 2743 2742 2742 2741 2741 2740 2740 2740
2774 2774 2773 2772 2772 2772 2771 2770 2769 2768 2767 2766 2765 2764 2763 2763 2763 2762 2761 2761 2760 2760 2760 2759 2759 2759 2759 2759 2758 2758 2758 2757 2757 2756 2756 2755 2755 2755 2755 2755 2754 2754 2754 2753 2753 2752 2752 2751 2750 2749 2748 2747 2746 2745 2744 2743 2742 2742 2741 2740 2740 2740 2740
2770 2769 2768 2767 2767 2766 2765 2765 2764 2764 2763 2762 2761 2760 2759 2759 2758 2758 2757 2757 2756 2756 2756 2756 2756 2756 2756 2755 2755 2755 2755 2755 2754 2754 2753 2753 2753 2753 2753 2753 2753 2753 2752 2752 2751 2751 2750 2750 2749 2748 2748 2747 2746 2745 2744 2743 2742 2742 2741 2741 2740 2740 2740
2765 2764 2763 2762 2762 2762 2761 2760 2759 2759 2758 2758 2757 2756 2755 2754 2755 2754 2754 2753 2753 2752 2752 2752 2752 2752 2752 2752 2752 2752 2752 2752 2752 2751 2751 2751 2751 2751 2752 2751 2751 2751 2751 2750 2750 2749 2749 2748 2748 2747 2747 2746 2745 2745 2744 2743 2743 2742 2742 2741 2741 2740 2740
2760 2758 2757 2757 2757 2757 2756 2755 2755 2754 2754 2753 2753 2751 2750 2750 2751 2751 2750 2750 2749 2749 2749 2749 2749 2749 2749 2749 2749 2749 2749 2749 2749 2749 2749 2749 2749 2750 2750 2750 2750 2750 2749 2749 2748 2748 2748 2747 2747 2747 2746 2746 2745 2744 2744 2743 2743 2742 2742 2742 2741 2741 2741
2756 2754 2753 2752 2752 2751 2750 2750 2750 2750 2749 2748 2748 2747 2746 2745 2746 2747 2747 2746 2746 2745 2745 2745 2745 2746 2746 2746 2746 2746 2747 2747 2747 2747 2747 2747 2748 2748 2748 2748 2748 2748 2748 2747 2747 2747 2747 2746 2746 2746 2745 2745 2745 2744 2744 2743 2743 2743 2742 2742 2742 2742 2742